<?xml version="1.0" encoding="UTF-8" standalone="no" ?>
<gpx xmlns="http://www.topografix.com/GPX/1/1" creator="G7ToWin A.00.200e" version="1.1" xmlns:xsi="http://www.w3.org/2001/XMLSchema-instance" xsi:schemaLocation="http://www.topografix.com/GPX/1/1 http://www.topografix.com/GPX/1/1/gpx.xsd">

  <metadata>
    <link href="http://www.gpsinformation.org/ronh/g7towin.htm">
      <text>G7ToWin</text>
    </link>
    <time>2007-04-07T11:33:15Z</time>
    <bounds minlat="37.2538090" minlon="-3.5071580" maxlat="37" maxlon="-3"/>
  </metadata>

  <trk>
    <name>25-ABR-06</name>
    <type>Track black</type>
    <extensions>
      <line xmlns="http://www.topografix.com/GPX/gpx_style/0/2">
        <color>000000</color>
      </line>
    </extensions>
    <trkseg>
      <trkpt lat="37.255029000" lon="-3.485459000">
        <ele>1288.389648</ele>
        <time>2006-04-26T16:50:07Z</time>
      </trkpt>
      <trkpt lat="37.255049000" lon="-3.485629000">
        <ele>1288.694458</ele>
        <time>2006-04-26T16:50:07Z</time>
      </trkpt>
      <trkpt lat="37.255029000" lon="-3.485379000">
        <ele>1288.694458</ele>
        <time>2006-04-26T16:50:07Z</time>
      </trkpt>
      <trkpt lat="37.255099000" lon="-3.485609000">
        <ele>1287.780029</ele>
        <time>2006-04-26T16:50:07Z</time>
      </trkpt>
      <trkpt lat="37.255329000" lon="-3.485329000">
        <ele>1288.389648</ele>
        <time>2006-04-26T16:50:07Z</time>
      </trkpt>
      <trkpt lat="37.255379000" lon="-3.485249000">
        <ele>1285.341675</ele>
        <time>2006-04-26T16:50:07Z</time>
      </trkpt>
      <trkpt lat="37.255399000" lon="-3.485249000">
        <ele>1282.598389</ele>
        <time>2006-04-26T16:50:07Z</time>
      </trkpt>
      <trkpt lat="37.255309000" lon="-3.485289000">
        <ele>1282.598389</ele>
        <time>2006-04-26T16:50:07Z</time>
      </trkpt>
      <trkpt lat="37.255269000" lon="-3.485049000">
        <ele>1277.721558</ele>
        <time>2006-04-26T16:50:07Z</time>
      </trkpt>
      <trkpt lat="37.255269000" lon="-3.484949000">
        <ele>1277.721558</ele>
        <time>2006-04-26T16:50:07Z</time>
      </trkpt>
      <trkpt lat="37.255289000" lon="-3.484879000">
        <ele>1281.074463</ele>
        <time>2006-04-26T16:50:07Z</time>
      </trkpt>
      <trkpt lat="37.255329000" lon="-3.484879000">
        <ele>1283.817627</ele>
        <time>2006-04-26T16:50:07Z</time>
      </trkpt>
      <trkpt lat="37.255199000" lon="-3.484839000">
        <ele>1281.988770</ele>
        <time>2006-04-26T16:50:07Z</time>
      </trkpt>
      <trkpt lat="37.255009000" lon="-3.484989000">
        <ele>1281.988770</ele>
        <time>2006-04-26T16:50:07Z</time>
      </trkpt>
      <trkpt lat="37.254689000" lon="-3.485549000">
        <ele>1283.512817</ele>
        <time>2006-04-26T16:50:07Z</time>
      </trkpt>
      <trkpt lat="37.254689000" lon="-3.485849000">
        <ele>1283.512817</ele>
        <time>2006-04-26T16:50:07Z</time>
      </trkpt>
      <trkpt lat="37.254259000" lon="-3.486429000">
        <ele>1285.341675</ele>
        <time>2006-04-26T16:50:07Z</time>
      </trkpt>
      <trkpt lat="37.254259000" lon="-3.486429000">
        <ele>1289.303955</ele>
        <time>2006-04-26T16:50:07Z</time>
      </trkpt>
      <trkpt lat="37.254069000" lon="-3.486729000">
        <ele>1289.608765</ele>
        <time>2006-04-26T16:50:07Z</time>
      </trkpt>
      <trkpt lat="37.254039000" lon="-3.486919000">
        <ele>1289.608765</ele>
        <time>2006-04-26T16:50:07Z</time>
      </trkpt>
      <trkpt lat="37.253809000" lon="-3.486879000">
        <ele>1290.218384</ele>
        <time>2006-04-26T16:50:07Z</time>
      </trkpt>
      <trkpt lat="37.253939000" lon="-3.486749000">
        <ele>1289.608765</ele>
        <time>2006-04-26T16:50:07Z</time>
      </trkpt>
      <trkpt lat="37.253959000" lon="-3.486639000">
        <ele>1291.742432</ele>
        <time>2006-04-26T16:50:07Z</time>
      </trkpt>
      <trkpt lat="37.253869000" lon="-3.486619000">
        <ele>1291.132813</ele>
        <time>2006-04-26T16:50:07Z</time>
      </trkpt>
      <trkpt lat="37.254069000" lon="-3.486529000">
        <ele>1290.828003</ele>
        <time>2006-04-26T16:50:07Z</time>
      </trkpt>
      <trkpt lat="37.253999000" lon="-3.486619000">
        <ele>1285.341675</ele>
        <time>2006-04-26T16:50:07Z</time>
      </trkpt>
      <trkpt lat="37.254129000" lon="-3.487009000">
        <ele>1284.427246</ele>
        <time>2006-04-26T16:50:07Z</time>
      </trkpt>
      <trkpt lat="37.254409000" lon="-3.487029000">
        <ele>1284.427246</ele>
        <time>2006-04-26T16:50:07Z</time>
      </trkpt>
      <trkpt lat="37.254469000" lon="-3.486809000">
        <ele>1284.427246</ele>
        <time>2006-04-26T16:50:07Z</time>
      </trkpt>
      <trkpt lat="37.254349000" lon="-3.486709000">
        <ele>1283.512817</ele>
        <time>2006-04-26T16:50:07Z</time>
      </trkpt>
      <trkpt lat="37.254599000" lon="-3.486489000">
        <ele>1282.903198</ele>
        <time>2006-04-26T16:50:07Z</time>
      </trkpt>
      <trkpt lat="37.254499000" lon="-3.486359000">
        <ele>1282.598389</ele>
        <time>2006-04-26T16:50:07Z</time>
      </trkpt>
      <trkpt lat="37.254689000" lon="-3.486379000">
        <ele>1281.988770</ele>
        <time>2006-04-26T16:50:07Z</time>
      </trkpt>
      <trkpt lat="37.254859000" lon="-3.485649000">
        <ele>1278.331177</ele>
        <time>2006-04-26T16:50:07Z</time>
      </trkpt>
      <trkpt lat="37.255009000" lon="-3.485309000">
        <ele>1277.112061</ele>
        <time>2006-04-26T16:50:07Z</time>
      </trkpt>
      <trkpt lat="37.255049000" lon="-3.485269000">
        <ele>1278.331177</ele>
        <time>2006-04-26T16:50:07Z</time>
      </trkpt>
      <trkpt lat="37.255049000" lon="-3.485269000">
        <ele>1281.683960</ele>
        <time>2006-04-26T16:50:07Z</time>
      </trkpt>
      <trkpt lat="37.255049000" lon="-3.485269000">
        <ele>1285.036865</ele>
        <time>2006-04-26T16:50:07Z</time>
      </trkpt>
      <trkpt lat="37.256749000" lon="-3.485379000">
        <ele>1286.255981</ele>
        <time>2006-04-26T16:50:07Z</time>
      </trkpt>
      <trkpt lat="37.256879000" lon="-3.485379000">
        <ele>1288.694458</ele>
        <time>2006-04-26T16:50:07Z</time>
      </trkpt>
      <trkpt lat="37.257179000" lon="-3.485649000">
        <ele>1296.314453</ele>
        <time>2006-04-26T16:50:07Z</time>
      </trkpt>
      <trkpt lat="37.257709000" lon="-3.486109000">
        <ele>1293.571167</ele>
        <time>2006-04-26T16:50:07Z</time>
      </trkpt>
      <trkpt lat="37.257589000" lon="-3.485909000">
        <ele>1292.961670</ele>
        <time>2006-04-26T16:50:07Z</time>
      </trkpt>
      <trkpt lat="37.257669000" lon="-3.485759000">
        <ele>1292.656860</ele>
        <time>2006-04-26T16:50:07Z</time>
      </trkpt>
      <trkpt lat="37.257889000" lon="-3.486208000">
        <ele>1292.656860</ele>
        <time>2006-04-26T16:50:07Z</time>
      </trkpt>
      <trkpt lat="37.257539000" lon="-3.486319000">
        <ele>1292.047241</ele>
        <time>2006-04-26T16:50:07Z</time>
      </trkpt>
      <trkpt lat="37.257689000" lon="-3.486358000">
        <ele>1292.961670</ele>
        <time>2006-04-26T16:50:07Z</time>
      </trkpt>
      <trkpt lat="37.257689000" lon="-3.486658000">
        <ele>1292.961670</ele>
        <time>2006-04-26T16:50:07Z</time>
      </trkpt>
      <trkpt lat="37.258009000" lon="-3.486768000">
        <ele>1294.485596</ele>
        <time>2006-04-26T16:50:07Z</time>
      </trkpt>
      <trkpt lat="37.258639000" lon="-3.487238000">
        <ele>1292.656860</ele>
        <time>2006-04-26T16:50:07Z</time>
      </trkpt>
      <trkpt lat="37.259089000" lon="-3.486938000">
        <ele>1296.009644</ele>
        <time>2006-04-26T16:50:07Z</time>
      </trkpt>
      <trkpt lat="37.259649000" lon="-3.486018000">
        <ele>1297.533569</ele>
        <time>2006-04-26T16:50:07Z</time>
      </trkpt>
      <trkpt lat="37.259879000" lon="-3.485978000">
        <ele>1297.533569</ele>
        <time>2006-04-26T16:50:07Z</time>
      </trkpt>
      <trkpt lat="37.260009000" lon="-3.485778000">
        <ele>1298.447998</ele>
        <time>2006-04-26T16:50:07Z</time>
      </trkpt>
      <trkpt lat="37.259769000" lon="-3.485998000">
        <ele>1298.447998</ele>
        <time>2006-04-26T16:50:07Z</time>
      </trkpt>
      <trkpt lat="37.259819000" lon="-3.485828000">
        <ele>1298.752808</ele>
        <time>2006-04-26T16:50:07Z</time>
      </trkpt>
      <trkpt lat="37.259819000" lon="-3.486018000">
        <ele>1297.838379</ele>
        <time>2006-04-26T16:50:07Z</time>
      </trkpt>
      <trkpt lat="37.259819000" lon="-3.486408000">
        <ele>1302.715210</ele>
        <time>2006-04-26T16:50:07Z</time>
      </trkpt>
      <trkpt lat="37.259879000" lon="-3.486558000">
        <ele>1303.324829</ele>
        <time>2006-04-26T16:50:07Z</time>
      </trkpt>
      <trkpt lat="37.260309000" lon="-3.486858000">
        <ele>1306.067993</ele>
        <time>2006-04-26T16:50:07Z</time>
      </trkpt>
      <trkpt lat="37.260519000" lon="-3.487178000">
        <ele>1310.030396</ele>
        <time>2006-04-26T16:50:07Z</time>
      </trkpt>
      <trkpt lat="37.260329000" lon="-3.487668000">
        <ele>1314.297607</ele>
        <time>2006-04-26T16:50:07Z</time>
      </trkpt>
      <trkpt lat="37.260119000" lon="-3.488248000">
        <ele>1316.126465</ele>
        <time>2006-04-26T16:50:07Z</time>
      </trkpt>
      <trkpt lat="37.260269000" lon="-3.488768000">
        <ele>1316.126465</ele>
        <time>2006-04-26T16:50:07Z</time>
      </trkpt>
      <trkpt lat="37.260399000" lon="-3.488958000">
        <ele>1320.393677</ele>
        <time>2006-04-26T16:50:07Z</time>
      </trkpt>
      <trkpt lat="37.260649000" lon="-3.489198000">
        <ele>1321.917603</ele>
        <time>2006-04-26T16:50:07Z</time>
      </trkpt>
      <trkpt lat="37.260759000" lon="-3.489388000">
        <ele>1325.270386</ele>
        <time>2006-04-26T16:50:07Z</time>
      </trkpt>
      <trkpt lat="37.260929000" lon="-3.489598000">
        <ele>1326.794434</ele>
        <time>2006-04-26T16:50:07Z</time>
      </trkpt>
      <trkpt lat="37.261039000" lon="-3.489688000">
        <ele>1328.318359</ele>
        <time>2006-04-26T16:50:07Z</time>
      </trkpt>
      <trkpt lat="37.261619000" lon="-3.489898000">
        <ele>1330.452026</ele>
        <time>2006-04-26T16:50:07Z</time>
      </trkpt>
      <trkpt lat="37.262069000" lon="-3.489858000">
        <ele>1332.890381</ele>
        <time>2006-04-26T16:50:07Z</time>
      </trkpt>
      <trkpt lat="37.262109000" lon="-3.489838000">
        <ele>1331.976074</ele>
        <time>2006-04-26T16:50:07Z</time>
      </trkpt>
      <trkpt lat="37.262309000" lon="-3.489688000">
        <ele>1332.585571</ele>
        <time>2006-04-26T16:50:07Z</time>
      </trkpt>
      <trkpt lat="37.262429000" lon="-3.488958000">
        <ele>1332.890381</ele>
        <time>2006-04-26T16:50:07Z</time>
      </trkpt>
      <trkpt lat="37.262499000" lon="-3.488678000">
        <ele>1333.804810</ele>
        <time>2006-04-26T16:50:07Z</time>
      </trkpt>
      <trkpt lat="37.262709000" lon="-3.488548000">
        <ele>1336.243164</ele>
        <time>2006-04-26T16:50:07Z</time>
      </trkpt>
      <trkpt lat="37.262689000" lon="-3.488978000">
        <ele>1339.596069</ele>
        <time>2006-04-26T16:50:07Z</time>
      </trkpt>
      <trkpt lat="37.262609000" lon="-3.489368000">
        <ele>1339.596069</ele>
        <time>2006-04-26T16:50:07Z</time>
      </trkpt>
      <trkpt lat="37.263099000" lon="-3.489948000">
        <ele>1345.387207</ele>
        <time>2006-04-26T16:50:07Z</time>
      </trkpt>
      <trkpt lat="37.263339000" lon="-3.490628000">
        <ele>1349.349609</ele>
        <time>2006-04-26T16:50:07Z</time>
      </trkpt>
      <trkpt lat="37.263229000" lon="-3.490948000">
        <ele>1351.787964</ele>
        <time>2006-04-26T16:50:07Z</time>
      </trkpt>
      <trkpt lat="37.263119000" lon="-3.491298000">
        <ele>1351.787964</ele>
        <time>2006-04-26T16:50:07Z</time>
      </trkpt>
      <trkpt lat="37.263249000" lon="-3.491318000">
        <ele>1351.787964</ele>
        <time>2006-04-26T16:50:07Z</time>
      </trkpt>
      <trkpt lat="37.263829000" lon="-3.491078000">
        <ele>1357.884033</ele>
        <time>2006-04-26T16:50:07Z</time>
      </trkpt>
      <trkpt lat="37.264339000" lon="-3.490998000">
        <ele>1359.407959</ele>
        <time>2006-04-26T16:50:07Z</time>
      </trkpt>
      <trkpt lat="37.264299000" lon="-3.491858000">
        <ele>1366.723267</ele>
        <time>2006-04-26T16:50:07Z</time>
      </trkpt>
      <trkpt lat="37.264149000" lon="-3.492108000">
        <ele>1365.199219</ele>
        <time>2006-04-26T16:50:07Z</time>
      </trkpt>
      <trkpt lat="37.263979000" lon="-3.492538000">
        <ele>1369.466431</ele>
        <time>2006-04-26T16:50:07Z</time>
      </trkpt>
      <trkpt lat="37.263959000" lon="-3.492648000">
        <ele>1367.028076</ele>
        <time>2006-04-26T16:50:07Z</time>
      </trkpt>
      <trkpt lat="37.263789000" lon="-3.493058000">
        <ele>1367.942383</ele>
        <time>2006-04-26T16:50:07Z</time>
      </trkpt>
      <trkpt lat="37.263889000" lon="-3.493568000">
        <ele>1370.990356</ele>
        <time>2006-04-26T16:50:07Z</time>
      </trkpt>
      <trkpt lat="37.264279000" lon="-3.494018000">
        <ele>1370.990356</ele>
        <time>2006-04-26T16:50:07Z</time>
      </trkpt>
      <trkpt lat="37.264949000" lon="-3.494148000">
        <ele>1374.343262</ele>
        <time>2006-04-26T16:50:07Z</time>
      </trkpt>
      <trkpt lat="37.265309000" lon="-3.493978000">
        <ele>1377.696045</ele>
        <time>2006-04-26T16:50:07Z</time>
      </trkpt>
      <trkpt lat="37.265249000" lon="-3.495418000">
        <ele>1385.925659</ele>
        <time>2006-04-26T16:50:07Z</time>
      </trkpt>
      <trkpt lat="37.265459000" lon="-3.495928000">
        <ele>1388.364014</ele>
        <time>2006-04-26T16:50:07Z</time>
      </trkpt>
      <trkpt lat="37.266509000" lon="-3.496728000">
        <ele>1393.545654</ele>
        <time>2006-04-26T16:50:07Z</time>
      </trkpt>
      <trkpt lat="37.267049000" lon="-3.496708000">
        <ele>1397.508057</ele>
        <time>2006-04-26T16:50:07Z</time>
      </trkpt>
      <trkpt lat="37.267309000" lon="-3.496398000">
        <ele>1397.812866</ele>
        <time>2006-04-26T16:50:07Z</time>
      </trkpt>
      <trkpt lat="37.267089000" lon="-3.496678000">
        <ele>1397.508057</ele>
        <time>2006-04-26T16:50:07Z</time>
      </trkpt>
      <trkpt lat="37.267009000" lon="-3.497008000">
        <ele>1401.775269</ele>
        <time>2006-04-26T16:50:07Z</time>
      </trkpt>
      <trkpt lat="37.267519000" lon="-3.496488000">
        <ele>1401.775269</ele>
        <time>2006-04-26T16:50:07Z</time>
      </trkpt>
      <trkpt lat="37.267609000" lon="-3.496558000">
        <ele>1401.165649</ele>
        <time>2006-04-26T16:50:07Z</time>
      </trkpt>
      <trkpt lat="37.268229000" lon="-3.495678000">
        <ele>1406.956787</ele>
        <time>2006-04-26T16:50:07Z</time>
      </trkpt>
      <trkpt lat="37.268999000" lon="-3.495158000">
        <ele>1411.223999</ele>
        <time>2006-04-26T16:50:07Z</time>
      </trkpt>
      <trkpt lat="37.269469000" lon="-3.494838000">
        <ele>1417.015259</ele>
        <time>2006-04-26T16:50:07Z</time>
      </trkpt>
      <trkpt lat="37.269899000" lon="-3.494168000">
        <ele>1422.501587</ele>
        <time>2006-04-26T16:50:07Z</time>
      </trkpt>
      <trkpt lat="37.269969000" lon="-3.493618000">
        <ele>1423.720825</ele>
        <time>2006-04-26T16:50:07Z</time>
      </trkpt>
      <trkpt lat="37.270289000" lon="-3.493038000">
        <ele>1426.159180</ele>
        <time>2006-04-26T16:50:07Z</time>
      </trkpt>
      <trkpt lat="37.271129000" lon="-3.492538000">
        <ele>1430.121582</ele>
        <time>2006-04-26T16:50:07Z</time>
      </trkpt>
      <trkpt lat="37.271429000" lon="-3.492178000">
        <ele>1436.827271</ele>
        <time>2006-04-26T16:50:07Z</time>
      </trkpt>
      <trkpt lat="37.271639000" lon="-3.491768000">
        <ele>1439.265625</ele>
        <time>2006-04-26T16:50:07Z</time>
      </trkpt>
      <trkpt lat="37.272159000" lon="-3.491188000">
        <ele>1443.532837</ele>
        <time>2006-04-26T16:50:07Z</time>
      </trkpt>
      <trkpt lat="37.272219000" lon="-3.491098000">
        <ele>1446.276001</ele>
        <time>2006-04-26T16:50:07Z</time>
      </trkpt>
      <trkpt lat="37.272309000" lon="-3.491828000">
        <ele>1447.495239</ele>
        <time>2006-04-26T16:50:07Z</time>
      </trkpt>
      <trkpt lat="37.272309000" lon="-3.492178000">
        <ele>1449.933594</ele>
        <time>2006-04-26T16:50:07Z</time>
      </trkpt>
      <trkpt lat="37.272349000" lon="-3.492778000">
        <ele>1449.933594</ele>
        <time>2006-04-26T16:50:07Z</time>
      </trkpt>
      <trkpt lat="37.272369000" lon="-3.492778000">
        <ele>1452.067261</ele>
        <time>2006-04-26T16:50:07Z</time>
      </trkpt>
      <trkpt lat="37.272389000" lon="-3.492778000">
        <ele>1451.152832</ele>
        <time>2006-04-26T16:50:07Z</time>
      </trkpt>
      <trkpt lat="37.272539000" lon="-3.492838000">
        <ele>1451.762451</ele>
        <time>2006-04-26T16:50:07Z</time>
      </trkpt>
      <trkpt lat="37.272949000" lon="-3.493138000">
        <ele>1454.200806</ele>
        <time>2006-04-26T16:50:07Z</time>
      </trkpt>
      <trkpt lat="37.273269000" lon="-3.494068000">
        <ele>1457.858398</ele>
        <time>2006-04-26T16:50:07Z</time>
      </trkpt>
      <trkpt lat="37.273249000" lon="-3.494278000">
        <ele>1456.029663</ele>
        <time>2006-04-26T16:50:07Z</time>
      </trkpt>
      <trkpt lat="37.273269000" lon="-3.494448000">
        <ele>1458.772827</ele>
        <time>2006-04-26T16:50:07Z</time>
      </trkpt>
      <trkpt lat="37.273459000" lon="-3.494688000">
        <ele>1458.772827</ele>
        <time>2006-04-26T16:50:07Z</time>
      </trkpt>
      <trkpt lat="37.273939000" lon="-3.494858000">
        <ele>1463.649658</ele>
        <time>2006-04-26T16:50:07Z</time>
      </trkpt>
      <trkpt lat="37.273979000" lon="-3.494988000">
        <ele>1467.612061</ele>
        <time>2006-04-26T16:50:07Z</time>
      </trkpt>
      <trkpt lat="37.273979000" lon="-3.495048000">
        <ele>1466.697632</ele>
        <time>2006-04-26T16:50:07Z</time>
      </trkpt>
      <trkpt lat="37.273979000" lon="-3.495098000">
        <ele>1468.526367</ele>
        <time>2006-04-26T16:50:07Z</time>
      </trkpt>
      <trkpt lat="37.274019000" lon="-3.494838000">
        <ele>1467.002441</ele>
        <time>2006-04-26T16:50:07Z</time>
      </trkpt>
      <trkpt lat="37.274389000" lon="-3.494338000">
        <ele>1467.002441</ele>
        <time>2006-04-26T16:50:07Z</time>
      </trkpt>
      <trkpt lat="37.275459000" lon="-3.493188000">
        <ele>1476.755981</ele>
        <time>2006-04-26T16:50:07Z</time>
      </trkpt>
      <trkpt lat="37.275309000" lon="-3.492348000">
        <ele>1479.499268</ele>
        <time>2006-04-26T16:50:07Z</time>
      </trkpt>
      <trkpt lat="37.275199000" lon="-3.492028000">
        <ele>1479.194458</ele>
        <time>2006-04-26T16:50:07Z</time>
      </trkpt>
      <trkpt lat="37.275369000" lon="-3.491228000">
        <ele>1478.584839</ele>
        <time>2006-04-26T16:50:07Z</time>
      </trkpt>
      <trkpt lat="37.275819000" lon="-3.491018000">
        <ele>1477.670410</ele>
        <time>2006-04-26T16:50:07Z</time>
      </trkpt>
      <trkpt lat="37.276059000" lon="-3.490528000">
        <ele>1479.194458</ele>
        <time>2006-04-26T16:50:07Z</time>
      </trkpt>
      <trkpt lat="37.276489000" lon="-3.490008000">
        <ele>1478.280029</ele>
        <time>2006-04-26T16:50:07Z</time>
      </trkpt>
      <trkpt lat="37.277259000" lon="-3.489668000">
        <ele>1476.755981</ele>
        <time>2006-04-26T16:50:07Z</time>
      </trkpt>
      <trkpt lat="37.278059000" lon="-3.489298000">
        <ele>1475.841675</ele>
        <time>2006-04-26T16:50:07Z</time>
      </trkpt>
      <trkpt lat="37.278659000" lon="-3.488718000">
        <ele>1471.269653</ele>
        <time>2006-04-26T16:50:07Z</time>
      </trkpt>
      <trkpt lat="37.279039000" lon="-3.488398000">
        <ele>1456.639160</ele>
        <time>2006-04-26T16:50:07Z</time>
      </trkpt>
      <trkpt lat="37.279089000" lon="-3.488418000">
        <ele>1455.115234</ele>
        <time>2006-04-26T16:50:07Z</time>
      </trkpt>
      <trkpt lat="37.279089000" lon="-3.488488000">
        <ele>1451.762451</ele>
        <time>2006-04-26T16:50:07Z</time>
      </trkpt>
      <trkpt lat="37.279239000" lon="-3.488568000">
        <ele>1445.361572</ele>
        <time>2006-04-26T16:50:07Z</time>
      </trkpt>
      <trkpt lat="37.279449000" lon="-3.488658000">
        <ele>1443.532837</ele>
        <time>2006-04-26T16:50:07Z</time>
      </trkpt>
      <trkpt lat="37.279539000" lon="-3.488548000">
        <ele>1438.351196</ele>
        <time>2006-04-26T16:50:07Z</time>
      </trkpt>
      <trkpt lat="37.279729000" lon="-3.488288000">
        <ele>1432.864868</ele>
        <time>2006-04-26T16:50:07Z</time>
      </trkpt>
      <trkpt lat="37.279749000" lon="-3.488228000">
        <ele>1431.950439</ele>
        <time>2006-04-26T16:50:07Z</time>
      </trkpt>
      <trkpt lat="37.279919000" lon="-3.488008000">
        <ele>1426.768799</ele>
        <time>2006-04-26T16:50:07Z</time>
      </trkpt>
      <trkpt lat="37.280179000" lon="-3.487818000">
        <ele>1417.929565</ele>
        <time>2006-04-26T16:50:07Z</time>
      </trkpt>
      <trkpt lat="37.280289000" lon="-3.487818000">
        <ele>1417.015259</ele>
        <time>2006-04-26T16:50:07Z</time>
      </trkpt>
      <trkpt lat="37.280519000" lon="-3.488058000">
        <ele>1419.453613</ele>
        <time>2006-04-26T16:50:07Z</time>
      </trkpt>
      <trkpt lat="37.280439000" lon="-3.488828000">
        <ele>1419.453613</ele>
        <time>2006-04-26T16:50:07Z</time>
      </trkpt>
      <trkpt lat="37.280439000" lon="-3.488848000">
        <ele>1417.624878</ele>
        <time>2006-04-26T16:50:07Z</time>
      </trkpt>
      <trkpt lat="37.280179000" lon="-3.489428000">
        <ele>1415.186401</ele>
        <time>2006-04-26T16:50:07Z</time>
      </trkpt>
      <trkpt lat="37.280159000" lon="-3.489468000">
        <ele>1416.710449</ele>
        <time>2006-04-26T16:50:07Z</time>
      </trkpt>
      <trkpt lat="37.279819000" lon="-3.489708000">
        <ele>1417.015259</ele>
        <time>2006-04-26T16:50:07Z</time>
      </trkpt>
      <trkpt lat="37.279859000" lon="-3.490438000">
        <ele>1414.271973</ele>
        <time>2006-04-26T16:50:07Z</time>
      </trkpt>
      <trkpt lat="37.279769000" lon="-3.490568000">
        <ele>1417.015259</ele>
        <time>2006-04-26T16:50:07Z</time>
      </trkpt>
      <trkpt lat="37.279599000" lon="-3.490888000">
        <ele>1417.929565</ele>
        <time>2006-04-26T16:50:07Z</time>
      </trkpt>
      <trkpt lat="37.279409000" lon="-3.491408000">
        <ele>1419.148804</ele>
        <time>2006-04-26T16:50:07Z</time>
      </trkpt>
      <trkpt lat="37.279259000" lon="-3.493508000">
        <ele>1424.330444</ele>
        <time>2006-04-26T16:50:07Z</time>
      </trkpt>
      <trkpt lat="37.279039000" lon="-3.493848000">
        <ele>1426.159180</ele>
        <time>2006-04-26T16:50:07Z</time>
      </trkpt>
      <trkpt lat="37.278979000" lon="-3.494168000">
        <ele>1429.207275</ele>
        <time>2006-04-26T16:50:07Z</time>
      </trkpt>
      <trkpt lat="37.278809000" lon="-3.494728000">
        <ele>1431.036011</ele>
        <time>2006-04-26T16:50:07Z</time>
      </trkpt>
      <trkpt lat="37.278809000" lon="-3.494748000">
        <ele>1432.560059</ele>
        <time>2006-04-26T16:50:07Z</time>
      </trkpt>
      <trkpt lat="37.278549000" lon="-3.495548000">
        <ele>1435.912842</ele>
        <time>2006-04-26T16:50:07Z</time>
      </trkpt>
      <trkpt lat="37.278029000" lon="-3.496788000">
        <ele>1436.827271</ele>
        <time>2006-04-26T16:50:07Z</time>
      </trkpt>
      <trkpt lat="37.277479000" lon="-3.497498000">
        <ele>1439.265625</ele>
        <time>2006-04-26T16:50:07Z</time>
      </trkpt>
      <trkpt lat="37.277199000" lon="-3.497738000">
        <ele>1438.656006</ele>
        <time>2006-04-26T16:50:07Z</time>
      </trkpt>
      <trkpt lat="37.276299000" lon="-3.498548000">
        <ele>1429.207275</ele>
        <time>2006-04-26T16:50:07Z</time>
      </trkpt>
      <trkpt lat="37.276249000" lon="-3.498768000">
        <ele>1427.683228</ele>
        <time>2006-04-26T16:50:07Z</time>
      </trkpt>
      <trkpt lat="37.276399000" lon="-3.499188000">
        <ele>1430.121582</ele>
        <time>2006-04-26T16:50:07Z</time>
      </trkpt>
      <trkpt lat="37.276319000" lon="-3.499018000">
        <ele>1423.720825</ele>
        <time>2006-04-26T16:50:07Z</time>
      </trkpt>
      <trkpt lat="37.276099000" lon="-3.498768000">
        <ele>1419.453613</ele>
        <time>2006-04-26T16:50:07Z</time>
      </trkpt>
      <trkpt lat="37.275519000" lon="-3.498528000">
        <ele>1402.689575</ele>
        <time>2006-04-26T16:50:07Z</time>
      </trkpt>
      <trkpt lat="37.275199000" lon="-3.498338000">
        <ele>1396.288818</ele>
        <time>2006-04-26T16:50:07Z</time>
      </trkpt>
      <trkpt lat="37.275029000" lon="-3.498248000">
        <ele>1396.288818</ele>
        <time>2006-04-26T16:50:07Z</time>
      </trkpt>
      <trkpt lat="37.274789000" lon="-3.498488000">
        <ele>1393.545654</ele>
        <time>2006-04-26T16:50:07Z</time>
      </trkpt>
      <trkpt lat="37.274539000" lon="-3.498548000">
        <ele>1386.230469</ele>
        <time>2006-04-26T16:50:07Z</time>
      </trkpt>
      <trkpt lat="37.274369000" lon="-3.498618000">
        <ele>1385.925659</ele>
        <time>2006-04-26T16:50:07Z</time>
      </trkpt>
      <trkpt lat="37.273979000" lon="-3.499278000">
        <ele>1377.086426</ele>
        <time>2006-04-26T16:50:07Z</time>
      </trkpt>
      <trkpt lat="37.273589000" lon="-3.500098000">
        <ele>1375.867188</ele>
        <time>2006-04-26T16:50:07Z</time>
      </trkpt>
      <trkpt lat="37.273459000" lon="-3.500568000">
        <ele>1379.524780</ele>
        <time>2006-04-26T16:50:07Z</time>
      </trkpt>
      <trkpt lat="37.273399000" lon="-3.500998000">
        <ele>1380.134399</ele>
        <time>2006-04-26T16:50:07Z</time>
      </trkpt>
      <trkpt lat="37.273339000" lon="-3.501098000">
        <ele>1380.134399</ele>
        <time>2006-04-26T16:50:07Z</time>
      </trkpt>
      <trkpt lat="37.273209000" lon="-3.501228000">
        <ele>1375.867188</ele>
        <time>2006-04-26T16:50:07Z</time>
      </trkpt>
      <trkpt lat="37.273159000" lon="-3.501278000">
        <ele>1371.904785</ele>
        <time>2006-04-26T16:50:07Z</time>
      </trkpt>
      <trkpt lat="37.273119000" lon="-3.501318000">
        <ele>1371.904785</ele>
        <time>2006-04-26T16:50:07Z</time>
      </trkpt>
      <trkpt lat="37.272929000" lon="-3.501898000">
        <ele>1373.428833</ele>
        <time>2006-04-26T16:50:07Z</time>
      </trkpt>
      <trkpt lat="37.272929000" lon="-3.502498000">
        <ele>1369.466431</ele>
        <time>2006-04-26T16:50:07Z</time>
      </trkpt>
      <trkpt lat="37.272909000" lon="-3.503788000">
        <ele>1375.867188</ele>
        <time>2006-04-26T16:50:07Z</time>
      </trkpt>
      <trkpt lat="37.272909000" lon="-3.503808000">
        <ele>1373.733643</ele>
        <time>2006-04-26T16:50:07Z</time>
      </trkpt>
      <trkpt lat="37.272929000" lon="-3.503918000">
        <ele>1374.343262</ele>
        <time>2006-04-26T16:50:07Z</time>
      </trkpt>
      <trkpt lat="37.272969000" lon="-3.503938000">
        <ele>1374.952759</ele>
        <time>2006-04-26T16:50:07Z</time>
      </trkpt>
      <trkpt lat="37.272969000" lon="-3.503888000">
        <ele>1370.990356</ele>
        <time>2006-04-26T16:50:07Z</time>
      </trkpt>
      <trkpt lat="37.273009000" lon="-3.503788000">
        <ele>1371.295166</ele>
        <time>2006-04-26T16:50:07Z</time>
      </trkpt>
      <trkpt lat="37.272989000" lon="-3.503868000">
        <ele>1371.904785</ele>
        <time>2006-04-26T16:50:07Z</time>
      </trkpt>
      <trkpt lat="37.272989000" lon="-3.503868000">
        <ele>1370.076050</ele>
        <time>2006-04-26T16:50:07Z</time>
      </trkpt>
      <trkpt lat="37.272989000" lon="-3.503888000">
        <ele>1371.295166</ele>
        <time>2006-04-26T16:50:07Z</time>
      </trkpt>
      <trkpt lat="37.273009000" lon="-3.503888000">
        <ele>1370.076050</ele>
        <time>2006-04-26T16:50:07Z</time>
      </trkpt>
      <trkpt lat="37.273009000" lon="-3.503978000">
        <ele>1368.552002</ele>
        <time>2006-04-26T16:50:07Z</time>
      </trkpt>
      <trkpt lat="37.272609000" lon="-3.504278000">
        <ele>1360.017578</ele>
        <time>2006-04-26T16:50:07Z</time>
      </trkpt>
      <trkpt lat="37.272329000" lon="-3.504668000">
        <ele>1352.092773</ele>
        <time>2006-04-26T16:50:07Z</time>
      </trkpt>
      <trkpt lat="37.272129000" lon="-3.504768000">
        <ele>1350.264038</ele>
        <time>2006-04-26T16:50:07Z</time>
      </trkpt>
      <trkpt lat="37.271619000" lon="-3.504558000">
        <ele>1349.654419</ele>
        <time>2006-04-26T16:50:07Z</time>
      </trkpt>
      <trkpt lat="37.270949000" lon="-3.504838000">
        <ele>1340.205566</ele>
        <time>2006-04-26T16:50:07Z</time>
      </trkpt>
      <trkpt lat="37.270629000" lon="-3.504838000">
        <ele>1337.157593</ele>
        <time>2006-04-26T16:50:07Z</time>
      </trkpt>
      <trkpt lat="37.270009000" lon="-3.504988000">
        <ele>1326.184814</ele>
        <time>2006-04-26T16:50:07Z</time>
      </trkpt>
      <trkpt lat="37.269709000" lon="-3.504988000">
        <ele>1329.537598</ele>
        <time>2006-04-26T16:50:07Z</time>
      </trkpt>
      <trkpt lat="37.269619000" lon="-3.505048000">
        <ele>1328.318359</ele>
        <time>2006-04-26T16:50:07Z</time>
      </trkpt>
      <trkpt lat="37.268739000" lon="-3.504368000">
        <ele>1321.917603</ele>
        <time>2006-04-26T16:50:07Z</time>
      </trkpt>
      <trkpt lat="37.268249000" lon="-3.504218000">
        <ele>1317.650391</ele>
        <time>2006-04-26T16:50:07Z</time>
      </trkpt>
      <trkpt lat="37.268139000" lon="-3.504108000">
        <ele>1318.564819</ele>
        <time>2006-04-26T16:50:07Z</time>
      </trkpt>
      <trkpt lat="37.268059000" lon="-3.503978000">
        <ele>1317.040771</ele>
        <time>2006-04-26T16:50:07Z</time>
      </trkpt>
      <trkpt lat="37.268059000" lon="-3.503938000">
        <ele>1314.297607</ele>
        <time>2006-04-26T16:50:07Z</time>
      </trkpt>
      <trkpt lat="37.267709000" lon="-3.503848000">
        <ele>1310.944824</ele>
        <time>2006-04-26T16:50:07Z</time>
      </trkpt>
      <trkpt lat="37.268009000" lon="-3.503868000">
        <ele>1306.067993</ele>
        <time>2006-04-26T16:50:07Z</time>
      </trkpt>
      <trkpt lat="37.267929000" lon="-3.503678000">
        <ele>1303.324829</ele>
        <time>2006-04-26T16:50:07Z</time>
      </trkpt>
      <trkpt lat="37.267759000" lon="-3.503698000">
        <ele>1298.447998</ele>
        <time>2006-04-26T16:50:07Z</time>
      </trkpt>
      <trkpt lat="37.267279000" lon="-3.503608000">
        <ele>1292.656860</ele>
        <time>2006-04-26T16:50:07Z</time>
      </trkpt>
      <trkpt lat="37.266769000" lon="-3.503828000">
        <ele>1289.608765</ele>
        <time>2006-04-26T16:50:07Z</time>
      </trkpt>
      <trkpt lat="37.266579000" lon="-3.504068000">
        <ele>1287.170410</ele>
        <time>2006-04-26T16:50:07Z</time>
      </trkpt>
      <trkpt lat="37.266489000" lon="-3.504218000">
        <ele>1286.865601</ele>
        <time>2006-04-26T16:50:07Z</time>
      </trkpt>
      <trkpt lat="37.266339000" lon="-3.504428000">
        <ele>1281.074463</ele>
        <time>2006-04-26T16:50:07Z</time>
      </trkpt>
      <trkpt lat="37.265909000" lon="-3.505028000">
        <ele>1279.550415</ele>
        <time>2006-04-26T16:50:07Z</time>
      </trkpt>
      <trkpt lat="37.265889000" lon="-3.505268000">
        <ele>1275.283203</ele>
        <time>2006-04-26T16:50:07Z</time>
      </trkpt>
      <trkpt lat="37.265779000" lon="-3.505718000">
        <ele>1274.368774</ele>
        <time>2006-04-26T16:50:07Z</time>
      </trkpt>
      <trkpt lat="37.265269000" lon="-3.506318000">
        <ele>1267.053589</ele>
        <time>2006-04-26T16:50:07Z</time>
      </trkpt>
      <trkpt lat="37.265199000" lon="-3.506338000">
        <ele>1264.310425</ele>
        <time>2006-04-26T16:50:07Z</time>
      </trkpt>
      <trkpt lat="37.264489000" lon="-3.506618000">
        <ele>1260.043213</ele>
        <time>2006-04-26T16:50:07Z</time>
      </trkpt>
      <trkpt lat="37.264069000" lon="-3.507158000">
        <ele>1259.433594</ele>
        <time>2006-04-26T16:50:07Z</time>
      </trkpt>
      <trkpt lat="37.264019000" lon="-3.507068000">
        <ele>1260.043213</ele>
        <time>2006-04-26T16:50:07Z</time>
      </trkpt>
      <trkpt lat="37.264319000" lon="-3.507088000">
        <ele>1257.909668</ele>
        <time>2006-04-26T16:50:07Z</time>
      </trkpt>
      <trkpt lat="37.264129000" lon="-3.506698000">
        <ele>1256.080811</ele>
        <time>2006-04-26T16:50:07Z</time>
      </trkpt>
      <trkpt lat="37.264339000" lon="-3.507028000">
        <ele>1255.471191</ele>
        <time>2006-04-26T16:50:07Z</time>
      </trkpt>
      <trkpt lat="37.264149000" lon="-3.506808000">
        <ele>1256.690430</ele>
        <time>2006-04-26T16:50:07Z</time>
      </trkpt>
      <trkpt lat="37.263939000" lon="-3.506978000">
        <ele>1256.080811</ele>
        <time>2006-04-26T16:50:07Z</time>
      </trkpt>
      <trkpt lat="37.264109000" lon="-3.507028000">
        <ele>1256.690430</ele>
        <time>2006-04-26T16:50:07Z</time>
      </trkpt>
      <trkpt lat="37.264109000" lon="-3.506848000">
        <ele>1256.995239</ele>
        <time>2006-04-26T16:50:07Z</time>
      </trkpt>
      <trkpt lat="37.263719000" lon="-3.507048000">
        <ele>1251.813599</ele>
        <time>2006-04-26T16:50:07Z</time>
      </trkpt>
      <trkpt lat="37.263249000" lon="-3.507088000">
        <ele>1247.851196</ele>
        <time>2006-04-26T16:50:07Z</time>
      </trkpt>
      <trkpt lat="37.263189000" lon="-3.507108000">
        <ele>1246.327271</ele>
        <time>2006-04-26T16:50:07Z</time>
      </trkpt>
      <trkpt lat="37.262369000" lon="-3.506278000">
        <ele>1236.878418</ele>
        <time>2006-04-26T16:50:07Z</time>
      </trkpt>
      <trkpt lat="37.261899000" lon="-3.505908000">
        <ele>1228.648804</ele>
        <time>2006-04-26T16:50:07Z</time>
      </trkpt>
      <trkpt lat="37.261619000" lon="-3.505218000">
        <ele>1227.734375</ele>
        <time>2006-04-26T16:50:07Z</time>
      </trkpt>
      <trkpt lat="37.261099000" lon="-3.505308000">
        <ele>1224.381592</ele>
        <time>2006-04-26T16:50:07Z</time>
      </trkpt>
      <trkpt lat="37.260629000" lon="-3.504788000">
        <ele>1219.504761</ele>
        <time>2006-04-26T16:50:07Z</time>
      </trkpt>
      <trkpt lat="37.260549000" lon="-3.505098000">
        <ele>1218.590454</ele>
        <time>2006-04-26T16:50:07Z</time>
      </trkpt>
      <trkpt lat="37.259619000" lon="-3.505248000">
        <ele>1210.056030</ele>
        <time>2006-04-26T16:50:07Z</time>
      </trkpt>
      <trkpt lat="37.258529000" lon="-3.504858000">
        <ele>1207.617676</ele>
        <time>2006-04-26T16:50:07Z</time>
      </trkpt>
      <trkpt lat="37.257969000" lon="-3.504278000">
        <ele>1204.569580</ele>
        <time>2006-04-26T16:50:07Z</time>
      </trkpt>
      <trkpt lat="37.256559000" lon="-3.503568000">
        <ele>1212.799194</ele>
        <time>2006-04-26T16:50:07Z</time>
      </trkpt>
      <trkpt lat="37.256299000" lon="-3.503488000">
        <ele>1216.151978</ele>
        <time>2006-04-26T16:50:07Z</time>
      </trkpt>
      <trkpt lat="37.256039000" lon="-3.503438000">
        <ele>1217.066406</ele>
        <time>2006-04-26T16:50:07Z</time>
      </trkpt>
      <trkpt lat="37.255269000" lon="-3.504168000">
        <ele>1218.590454</ele>
        <time>2006-04-26T16:50:07Z</time>
      </trkpt>
      <trkpt lat="37.255159000" lon="-3.503958000">
        <ele>1216.151978</ele>
        <time>2006-04-26T16:50:07Z</time>
      </trkpt>
      <trkpt lat="37.255329000" lon="-3.503398000">
        <ele>1212.799194</ele>
        <time>2006-04-26T16:50:07Z</time>
      </trkpt>
      <trkpt lat="37.255779000" lon="-3.501788000">
        <ele>1204.569580</ele>
        <time>2006-04-26T16:50:07Z</time>
      </trkpt>
      <trkpt lat="37.255799000" lon="-3.500648000">
        <ele>1201.826416</ele>
        <time>2006-04-26T16:50:07Z</time>
      </trkpt>
      <trkpt lat="37.255979000" lon="-3.499368000">
        <ele>1200.911987</ele>
        <time>2006-04-26T16:50:07Z</time>
      </trkpt>
      <trkpt lat="37.256039000" lon="-3.498958000">
        <ele>1202.740845</ele>
        <time>2006-04-26T16:50:07Z</time>
      </trkpt>
      <trkpt lat="37.256059000" lon="-3.498058000">
        <ele>1207.617676</ele>
        <time>2006-04-26T16:50:07Z</time>
      </trkpt>
      <trkpt lat="37.256599000" lon="-3.495678000">
        <ele>1212.799194</ele>
        <time>2006-04-26T16:50:07Z</time>
      </trkpt>
      <trkpt lat="37.257069000" lon="-3.494798000">
        <ele>1218.590454</ele>
        <time>2006-04-26T16:50:07Z</time>
      </trkpt>
      <trkpt lat="37.256979000" lon="-3.493738000">
        <ele>1224.686401</ele>
        <time>2006-04-26T16:50:07Z</time>
      </trkpt>
      <trkpt lat="37.256879000" lon="-3.493248000">
        <ele>1229.563232</ele>
        <time>2006-04-26T16:50:07Z</time>
      </trkpt>
      <trkpt lat="37.256509000" lon="-3.491658000">
        <ele>1237.183228</ele>
        <time>2006-04-26T16:50:07Z</time>
      </trkpt>
      <trkpt lat="37.256449000" lon="-3.491168000">
        <ele>1242.974365</ele>
        <time>2006-04-26T16:50:07Z</time>
      </trkpt>
      <trkpt lat="37.257089000" lon="-3.489518000">
        <ele>1254.556763</ele>
        <time>2006-04-26T16:50:07Z</time>
      </trkpt>
      <trkpt lat="37.257179000" lon="-3.489258000">
        <ele>1254.556763</ele>
        <time>2006-04-26T16:50:07Z</time>
      </trkpt>
      <trkpt lat="37.257539000" lon="-3.489428000">
        <ele>1254.252075</ele>
        <time>2006-04-26T16:50:07Z</time>
      </trkpt>
      <trkpt lat="37.257689000" lon="-3.489218000">
        <ele>1254.252075</ele>
        <time>2006-04-26T16:50:07Z</time>
      </trkpt>
      <trkpt lat="37.257389000" lon="-3.489198000">
        <ele>1254.252075</ele>
        <time>2006-04-26T16:50:07Z</time>
      </trkpt>
      <trkpt lat="37.257329000" lon="-3.488978000">
        <ele>1254.556763</ele>
        <time>2006-04-26T16:50:07Z</time>
      </trkpt>
      <trkpt lat="37.257089000" lon="-3.488998000">
        <ele>1256.080811</ele>
        <time>2006-04-26T16:50:07Z</time>
      </trkpt>
      <trkpt lat="37.256529000" lon="-3.489618000">
        <ele>1260.043213</ele>
        <time>2006-04-26T16:50:07Z</time>
      </trkpt>
      <trkpt lat="37.256299000" lon="-3.489518000">
        <ele>1260.348022</ele>
        <time>2006-04-26T16:50:07Z</time>
      </trkpt>
      <trkpt lat="37.255999000" lon="-3.488918000">
        <ele>1266.139160</ele>
        <time>2006-04-26T16:50:07Z</time>
      </trkpt>
      <trkpt lat="37.255829000" lon="-3.488788000">
        <ele>1266.139160</ele>
        <time>2006-04-26T16:50:07Z</time>
      </trkpt>
      <trkpt lat="37.255549000" lon="-3.488589000">
        <ele>1271.320801</ele>
        <time>2006-04-26T16:50:07Z</time>
      </trkpt>
      <trkpt lat="37.255249000" lon="-3.488269000">
        <ele>1274.673584</ele>
        <time>2006-04-26T16:50:07Z</time>
      </trkpt>
      <trkpt lat="37.254689000" lon="-3.487909000">
        <ele>1280.160034</ele>
        <time>2006-04-26T16:50:07Z</time>
      </trkpt>
      <trkpt lat="37.254579000" lon="-3.487779000">
        <ele>1281.074463</ele>
        <time>2006-04-26T16:50:07Z</time>
      </trkpt>
      <trkpt lat="37.254319000" lon="-3.487439000">
        <ele>1279.550415</ele>
        <time>2006-04-26T16:50:07Z</time>
      </trkpt>
      <trkpt lat="37.254259000" lon="-3.487009000">
        <ele>1276.197632</ele>
        <time>2006-04-26T16:50:07Z</time>
      </trkpt>
      <trkpt lat="37.254369000" lon="-3.486659000">
        <ele>1274.673584</ele>
        <time>2006-04-26T16:50:07Z</time>
      </trkpt>
      <trkpt lat="37.254369000" lon="-3.486659000">
        <ele>1282.903198</ele>
        <time>2006-04-26T16:50:07Z</time>
      </trkpt>
    </trkseg>
  </trk>
</gpx>
